When you browse on this site, cookies collect data to enhance your experience and personalize the content and advertising you see.
Visit our Privacy Policy to learn more. By continuing to use the site, you agree to this use of cookies and data.
  • In United Kingdom
  • List of Countries
  • For 7 days
  • Water Temperature
  • Weather Map
  • Weather Widgets
  • user-avatar
    Login

    Hourly Weather Salvador

    Today, 21 January, Tuesday

    Time Temperature Precipitation Wind Pressure Humidity
    00:00 +26°C° 0 mm 4 mps 754 mmHg 85%
    01:00 +26°C° 0 mm 3 mps 754 mmHg 86%
    02:00 +26°C° 0 mm 3 mps 753 mmHg 86%
    03:00 +25°C° 0 mm 2 mps 753 mmHg 86%
    04:00 +25°C° 0 mm 2 mps 753 mmHg 87%
    05:00 +25°C° 0 mm 2 mps 754 mmHg 87%
    06:00 +25°C° 0 mm 2 mps 754 mmHg 87%
    07:00 +27°C° 0 mm 2 mps 754 mmHg 80%
    08:00 +28°C° 0 mm 2 mps 755 mmHg 72%
    09:00 +29°C° 0 mm 3 mps 755 mmHg 65%
    10:00 +30°C° 0 mm 3 mps 754 mmHg 62%
    11:00 +32°C° 0 mm 4 mps 754 mmHg 60%
    12:00 +32°C° 0 mm 4 mps 754 mmHg 57%
    13:00 +32°C° 0 mm 5 mps 753 mmHg 59%
    14:00 +32°C° 0 mm 6 mps 752 mmHg 62%
    15:00 +32°C° 0 mm 6 mps 751 mmHg 64%
    16:00 +30°C° 0 mm 6 mps 751 mmHg 67%
    17:00 +29°C° 0 mm 6 mps 751 mmHg 70%
    18:00 +29°C° 0 mm 7 mps 751 mmHg 73%
    19:00 +28°C° 0 mm 6 mps 752 mmHg 75%
    20:00 +28°C° 0 mm 6 mps 752 mmHg 77%
    21:00 +28°C° 0 mm 6 mps 753 mmHg 79%
    22:00 +27°C° 0 mm 6 mps 753 mmHg 80%
    23:00 +27°C° 0 mm 5 mps 753 mmHg 81%

    Tomorrow, 22 January, Wednesday

    Time Temperature Precipitation Wind Pressure Humidity
    00:00 +27°C° 0 mm 5 mps 753 mmHg 83%
    01:00 +27°C° 0.2 mm 5 mps 753 mmHg 84%
    02:00 +27°C° 0.2 mm 5 mps 753 mmHg 85%
    03:00 +26°C° 0.2 mm 4 mps 753 mmHg 87%
    04:00 +27°C° 1.1 mm 5 mps 753 mmHg 86%
    05:00 +27°C° 1.1 mm 5 mps 753 mmHg 86%
    06:00 +27°C° 1.1 mm 6 mps 753 mmHg 86%
    07:00 +28°C° 0.4 mm 6 mps 753 mmHg 82%
    08:00 +28°C° 0.4 mm 5 mps 754 mmHg 78%
    09:00 +29°C° 0.4 mm 5 mps 754 mmHg 75%
    10:00 +30°C° 0.1 mm 5 mps 753 mmHg 68%
    11:00 +33°C° 0.1 mm 4 mps 753 mmHg 62%
    12:00 +34°C° 0.1 mm 3 mps 753 mmHg 56%
    13:00 +33°C° 0.7 mm 4 mps 752 mmHg 61%
    14:00 +32°C° 0.7 mm 4 mps 752 mmHg 66%
    15:00 +32°C° 0.7 mm 5 mps 751 mmHg 71%
    16:00 +30°C° 1.2 mm 5 mps 752 mmHg 76%
    17:00 +29°C° 1.2 mm 5 mps 752 mmHg 81%
    18:00 +28°C° 1.2 mm 5 mps 752 mmHg 86%
    19:00 +27°C° 3.6 mm 5 mps 753 mmHg 88%
    20:00 +27°C° 3.6 mm 4 mps 754 mmHg 91%
    21:00 +26°C° 3.6 mm 4 mps 754 mmHg 93%
    22:00 +26°C° 2.4 mm 4 mps 754 mmHg 93%
    23:00 +25°C° 2.4 mm 4 mps 754 mmHg 93%

    Day after tomorrow, 23 January, Thursday

    Time Temperature Precipitation Wind Pressure Humidity
    00:00 +25°C° 2.4 mm 4 mps 754 mmHg 93%
    01:00 +25°C° 0.3 mm 5 mps 754 mmHg 93%
    02:00 +25°C° 0.3 mm 5 mps 754 mmHg 93%
    03:00 +24°C° 0.3 mm 6 mps 754 mmHg 93%
    04:00 +25°C° 0.2 mm 5 mps 754 mmHg 93%
    05:00 +25°C° 0.2 mm 4 mps 754 mmHg 92%
    06:00 +25°C° 0.2 mm 3 mps 754 mmHg 92%
    07:00 +25°C° 0.5 mm 2 mps 754 mmHg 92%
    08:00 +25°C° 0.5 mm 2 mps 755 mmHg 93%
    09:00 +25°C° 0.5 mm 1 mps 755 mmHg 93%
    10:00 +26°C° 0 mm 1 mps 755 mmHg 90%
    11:00 +26°C° 0 mm 1 mps 755 mmHg 87%
    12:00 +27°C° 0 mm 1 mps 755 mmHg 83%
    13:00 +27°C° 0 mm 1 mps 754 mmHg 83%
    14:00 +27°C° 0 mm 1 mps 753 mmHg 83%
    15:00 +25°C° 0 mm 0 mps 753 mmHg 83%
    16:00 +27°C° 0 mm 1 mps 753 mmHg 83%
    17:00 +27°C° 0 mm 1 mps 753 mmHg 83%
    18:00 +27°C° 0 mm 2 mps 753 mmHg 84%
    19:00 +27°C° 0 mm 2 mps 754 mmHg 83%
    20:00 +27°C° 0 mm 2 mps 754 mmHg 82%
    21:00 +27°C° 0 mm 2 mps 754 mmHg 82%
    22:00 +27°C° 0.1 mm 2 mps 754 mmHg 83%
    23:00 +27°C° 0.1 mm 2 mps 754 mmHg 83%

    24 January, Friday

    Time Temperature Precipitation Wind Pressure Humidity
    00:00 +27°C° 0.1 mm 3 mps 754 mmHg 84%
    01:00 +26°C° 0.8 mm 3 mps 754 mmHg 86%
    02:00 +26°C° 0.8 mm 3 mps 753 mmHg 89%
    03:00 +26°C° 0.8 mm 3 mps 753 mmHg 91%
    04:00 +26°C° 1.1 mm 3 mps 753 mmHg 90%
    05:00 +26°C° 1.1 mm 4 mps 754 mmHg 90%
    06:00 +26°C° 1.1 mm 4 mps 754 mmHg 90%
    07:00 +27°C° 0.1 mm 4 mps 754 mmHg 88%
    08:00 +27°C° 0.1 mm 4 mps 754 mmHg 86%
    09:00 +27°C° 0.1 mm 3 mps 755 mmHg 84%
    10:00 +28°C° 0 mm 3 mps 754 mmHg 79%
    11:00 +29°C° 0 mm 3 mps 754 mmHg 74%
    12:00 +30°C° 0 mm 3 mps 754 mmHg 69%
    13:00 +30°C° 0.1 mm 3 mps 754 mmHg 70%
    14:00 +30°C° 0.1 mm 2 mps 753 mmHg 72%
    15:00 +30°C° 0.1 mm 2 mps 752 mmHg 73%
    16:00 +29°C° 0.4 mm 3 mps 753 mmHg 77%
    17:00 +29°C° 0.4 mm 3 mps 753 mmHg 80%
    18:00 +28°C° 0.4 mm 3 mps 753 mmHg 84%
    19:00 +28°C° 0.1 mm 4 mps 754 mmHg 85%
    20:00 +28°C° 0.1 mm 5 mps 754 mmHg 86%
    21:00 +28°C° 0.1 mm 5 mps 755 mmHg 88%
    22:00 +28°C° 0.7 mm 5 mps 755 mmHg 88%
    23:00 +28°C° 0.7 mm 5 mps 755 mmHg 88%

    25 January, Saturday

    Time Temperature Precipitation Wind Pressure Humidity
    00:00 +28°C° 0.7 mm 5 mps 755 mmHg 88%
    01:00 +28°C° 0.5 mm 5 mps 755 mmHg 88%
    02:00 +27°C° 0.5 mm 5 mps 754 mmHg 89%
    03:00 +27°C° 0.5 mm 4 mps 754 mmHg 89%
    04:00 +27°C° 0.5 mm 4 mps 754 mmHg 89%
    05:00 +27°C° 0.5 mm 4 mps 755 mmHg 89%
    06:00 +27°C° 0.5 mm 3 mps 755 mmHg 88%
    07:00 +28°C° 0.2 mm 3 mps 755 mmHg 84%
    08:00 +29°C° 0.2 mm 3 mps 756 mmHg 81%
    09:00 +30°C° 0.2 mm 3 mps 756 mmHg 77%
    10:00 +31°C° 1.1 mm 3 mps 756 mmHg 74%
    11:00 +31°C° 1.1 mm 3 mps 755 mmHg 71%
    12:00 +33°C° 1.1 mm 3 mps 755 mmHg 68%
    13:00 +32°C° 1.2 mm 4 mps 755 mmHg 72%
    14:00 +32°C° 1.2 mm 5 mps 754 mmHg 75%
    15:00 +30°C° 1.2 mm 6 mps 754 mmHg 79%
    16:00 +30°C° 0.2 mm 6 mps 754 mmHg 81%
    17:00 +29°C° 0.2 mm 6 mps 754 mmHg 82%
    18:00 +29°C° 0.2 mm 6 mps 755 mmHg 84%
    19:00 +28°C° 0.9 mm 5 mps 755 mmHg 85%
    20:00 +28°C° 0.9 mm 4 mps 756 mmHg 86%
    21:00 +28°C° 0.9 mm 4 mps 756 mmHg 87%
    22:00 +27°C° 1.7 mm 3 mps 756 mmHg 88%
    23:00 +27°C° 1.7 mm 2 mps 757 mmHg 89%

    26 January, Sunday

    Time Temperature Precipitation Wind Pressure Humidity
    00:00 +27°C° 1.7 mm 2 mps 757 mmHg 89%
    01:00 +27°C° 0.2 mm 2 mps 756 mmHg 90%
    02:00 +26°C° 0.2 mm 3 mps 756 mmHg 91%
    03:00 +26°C° 0.2 mm 3 mps 755 mmHg 92%
    04:00 +26°C° 0 mm 3 mps 755 mmHg 91%
    05:00 +26°C° 0 mm 3 mps 755 mmHg 90%
    06:00 +26°C° 0 mm 3 mps 755 mmHg 89%
    07:00 +27°C° 0 mm 3 mps 756 mmHg 85%
    08:00 +28°C° 0 mm 3 mps 756 mmHg 81%
    09:00 +29°C° 0 mm 4 mps 756 mmHg 77%
    10:00 +30°C° 0.1 mm 3 mps 756 mmHg 72%
    11:00 +31°C° 0.1 mm 3 mps 756 mmHg 67%
    12:00 +33°C° 0.1 mm 3 mps 755 mmHg 62%
    13:00 +32°C° 0 mm 4 mps 755 mmHg 64%
    14:00 +32°C° 0 mm 4 mps 754 mmHg 65%
    15:00 +32°C° 0 mm 5 mps 753 mmHg 67%
    16:00 +30°C° 0 mm 5 mps 753 mmHg 69%
    17:00 +30°C° 0 mm 5 mps 753 mmHg 71%
    18:00 +29°C° 0 mm 5 mps 754 mmHg 74%
    19:00 +29°C° 0 mm 5 mps 754 mmHg 77%
    20:00 +28°C° 0 mm 5 mps 755 mmHg 79%
    21:00 +28°C° 0 mm 5 mps 755 mmHg 82%
    22:00 +28°C° 0 mm 4 mps 755 mmHg 83%
    23:00 +27°C° 0 mm 4 mps 755 mmHg 85%
    Show more